Regional Weather Roundup
Issued by NWS Cleveland, OH

Home | Current Version | Previous Version | Text Only | Print | Product List | Glossary Off
Versions: 1 2 3 4 5 6 7 8 9 10 11 12 13 14 15 16 17 18 19 20 21 22 23 24 25 26 27 28 29 30 31 32 33 34 35 36 37 38 39 40 41 42 43 44 45 46 47 48 49 50

000
ASUS41 KCLE 231602
RWRCLE
OHIO REGIONAL WEATHER ROUNDUP
NATIONAL WEATHER SERVICE CLEVELAND, OH
1200 PM EDT WED JUL 23 2014

NOTE: "FAIR" INDICATES FEW OR NO CLOUDS BELOW 12,000 FEET WITH NO
SIGNIFICANT WEATHER AND/OR OBSTRUCTIONS TO VISIBILITY.

OHZ001>008-015>018-024>027-034-035-043-044-231700-
   NORTHWEST OHIO

CITY           SKY/WX    TMP DP  RH WIND       PRES   REMARKS
DEFIANCE         N/A    N/A N/A N/A MISG      30.04R
FINDLAY        CLOUDY    74  67  78 W9        30.01S
TOLEDO EXPRESS CLOUDY    69  62  78 NW9       30.03R
TOLEDO EXEC    CLOUDY    70  63  78 N13       30.03R
LIMA           CLOUDY    76  67  73 W13       30.04R
$$

OHZ009>014-019>023-028>033-038-089-231700-
   NORTHEAST OHIO

CITY           SKY/WX    TMP DP  RH WIND       PRES   REMARKS
CLE-HOPKINS    CLOUDY    69  65  86 N12       30.01R
CLE-LAKEFRONT  CLOUDY    69  64  84 N15       29.97R
CUY CO. ARPT   CLOUDY    70  66  88 N12       29.99R
LORAIN-ELYRIA  LGT RAIN  71  65  81 N12       30.00R
ASHTABULA      CLOUDY    70  65  84 N6        29.97S
AKRON-CANTON   CLOUDY    77  66  68 W9        29.98S
WOOSTER        PTSUNNY   78  68  71 NW12      29.99S
MANSFIELD      PTSUNNY   77  67  71 W12G18    30.01R
YOUNGSTOWN     CLOUDY    77  67  71 W10       29.97R
$$

OHZ042-051>053-060>062-070>072-077>081-231700-
  SOUTHWEST OHIO

CITY           SKY/WX    TMP DP  RH WIND       PRES   REMARKS
CINC-COVINGTON LGT RAIN  71  67  87 N15       30.10R FOG
CINC-LUNKEN    CLOUDY    75  66  73 W13       30.08R
HAMILTON       LGT RAIN  72  68  87 W10G17    30.11
DAYTON         PTSUNNY   78  67  68 W14       30.07R
WRIGHT-PAT AFB PTSUNNY   78  68  72 W15       30.05R
DAYTON GENERAL PTSUNNY   74  68  81 W12       30.08R
WILMINGTON     CLOUDY    74  67  78 W15       30.06R
$$

OHZ036-037-039>041-045>050-054>059-063>069-073>076-082>088-231700-
  CENTRAL AND SOUTHEAST OHIO

CITY           SKY/WX    TMP DP  RH WIND       PRES   REMARKS
COLUMBUS       CLOUDY    76  66  71 NW13      30.02R
OSU AIRPORT    CLOUDY    77  67  71 W13       30.02R
BOLTON FIELD   PTSUNNY   75  68  78 W7        30.03R
RICKENBACK AFB CLOUDY    76  62  62 NW10G16   30.01R
NEWARK         CLOUDY    76  65  68 VRB6      30.01R
MARION         MOSUNNY   78  66  66 W12       30.02R
LANCASTER      CLOUDY    78  67  68 NW10G18   30.01R
ZANESVILLE     CLOUDY    78  67  68 N7        29.99R
NEW PHILLY     CLOUDY    78  66  66 W5        29.98S
$$


USA.gov is the U.S. government's official web portal to all federal, state and local government web resources and services.